,,PA_Meas_PMT16A,,PR_Meas_QMR101_102,,RH_Meas_QMH101,,SR_Meas_QMS101,,TA_Meas_QMH101,,GenWind,,GenWind,
time,status,PA,status,PR,status,RH,status,SR,status,TA,status,DirAvg,status,SpdAvg,
2016-01-24, 07:29:04,VALID,919.022,VALID,0,VALID,96.2304,VALID,94.8705,VALID,21.5168,INVALID,360,INVALID,0,
2016-01-24, 07:35:04,VALID,919.065,VALID,0,VALID,89.2016,VALID,84.986,VALID,21.7705,VALID,155,VALID,2.28555,
2016-01-24, 07:36:04,VALID,919.08,VALID,0,VALID,89.1559,VALID,85.8455,VALID,21.7883,VALID,126,VALID,2.03906,
2016-01-24, 07:37:04,VALID,919.075,VALID,0,VALID,89.7581,VALID,90.5729,VALID,21.7688,VALID,138,VALID,2.1375,
2016-01-24, 07:38:04,VALID,919.061,VALID,0,VALID,91.5725,VALID,90.8952,VALID,21.7688,VALID,147,VALID,1.48867,
2016-01-24, 07:39:04,VALID,919.091,VALID,0,VALID,90.4976,VALID,87.0273,VALID,21.7883,VALID,151,VALID,0.768359,
2016-01-24, 07:40:04,VALID,919.078,VALID,0,VALID,91.1074,VALID,83.8041,VALID,21.8274,VALID,166,VALID,1.40547,
2016-01-24, 07:41:04,VALID,919.078,VALID,0,VALID,90.9473,VALID,81.2255,VALID,21.8469,VALID,164,VALID,1.26328,
2016-01-24, 07:42:04,VALID,919.112,VALID,0,VALID,90.1545,VALID,80.2585,VALID,21.8664,VALID,152,VALID,1.87812,
2016-01-24, 07:43:04,VALID,919.148,VALID,0,VALID,89.5828,VALID,77.4651,VALID,21.8859,VALID,155,VALID,1.90195,
2016-01-24, 07:44:04,VALID,919.175,VALID,0,VALID,91.0693,VALID,77.4651,VALID,21.8842,VALID,169,VALID,0.861328,
2016-01-24, 07:45:04,VALID,919.197,VALID,0,VALID,90.1164,VALID,76.8204,VALID,21.8664,VALID,139,VALID,1.51055,
2016-01-24, 07:46:04,VALID,919.222,VALID,0,VALID,90.5281,VALID,76.8204,VALID,21.8859,VALID,156,VALID,0.898828,
2016-01-24, 07:47:04,VALID,919.193,VALID,0,VALID,87.3872,VALID,79.0767,VALID,21.8842,VALID,137,VALID,2.20625,
2016-01-24, 07:48:04,VALID,919.223,VALID,0,VALID,87.6312,VALID,79.8288,VALID,21.9249,VALID,142,VALID,2.35352,
2016-01-24, 07:49:04,VALID,919.247,VALID,0,VALID,89.1482,VALID,91.9696,VALID,21.9249,VALID,142,VALID,1.75508,
2016-01-24, 07:50:04,VALID,919.189,VALID,0,VALID,88.7137,VALID,78.3246,VALID,21.9249,VALID,130,VALID,1.30234,
2016-01-24, 07:51:04,VALID,919.213,VALID,0,VALID,89.8877,VALID,106.044,VALID,21.9656,VALID,166,VALID,0.814453,
2016-01-24, 07:52:04,VALID,919.248,VALID,0,VALID,88.9424,VALID,125.921,VALID,21.9851,VALID,160,VALID,0.865625,
2016-01-24, 07:53:04,VALID,919.212,VALID,0,VALID,87.4863,VALID,136.02,VALID,22.0225,VALID,114,VALID,2.51133,
2016-01-24, 07:54:04,VALID,919.278,VALID,0,VALID,86.6859,VALID,126.781,VALID,22.0827,VALID,158,VALID,2.02148,
2016-01-24, 07:55:04,VALID,919.291,VALID,0,VALID,87.5626,VALID,96.8045,VALID,22.1217,VALID,138,VALID,2.24023,
2016-01-24, 07:56:04,VALID,919.268,VALID,0,VALID,86.6401,VALID,86.9199,VALID,22.081,VALID,181,VALID,1.82891,
2016-01-24, 07:58:04,VALID,919.316,VALID,0,VALID,86.2513,VALID,88.2092,VALID,22.1022,VALID,162,VALID,1.14688,
2016-01-24, 07:59:04,VALID,919.334,VALID,0,VALID,87.128,VALID,77.7874,VALID,22.1022,VALID,136,VALID,1.60898,
2016-01-24, 08:00:04,VALID,919.318,VALID,0,VALID,87.5168,VALID,130.756,VALID,22.0615,VALID,162,VALID,1.71563,
2016-01-24, 08:01:04,VALID,919.337,VALID,0,VALID,87.2576,VALID,119.26,VALID,22.0615,VALID,152,VALID,1.06719,
2016-01-24, 08:02:04,VALID,919.338,VALID,0,VALID,87.9361,VALID,156.219,VALID,22.1217,VALID,145,VALID,1.61445,
2016-01-24, 08:03:04,VALID,919.307,VALID,0,VALID,88.0123,VALID,206.824,VALID,22.1803,VALID,180,VALID,1.73203,
2016-01-24, 08:04:04,VALID,919.303,VALID,0,VALID,86.9298,VALID,239.809,VALID,22.2567,VALID,186,VALID,1.61367,
2016-01-24, 08:05:04,VALID,919.319,VALID,0,VALID,85.672,VALID,214.882,VALID,22.395,VALID,179,VALID,1.01328,
2016-01-24, 08:06:04,VALID,919.322,VALID,0,VALID,83.9262,VALID,204.138,VALID,22.4518,VALID,153,VALID,2.09492,
2016-01-24, 08:07:04,VALID,919.34,VALID,0,VALID,83.8347,VALID,203.171,VALID,22.5103,VALID,147,VALID,1.9707,
2016-01-24, 08:08:04,VALID,919.367,VALID,0,VALID,84.5208,VALID,285.686,VALID,22.5299,VALID,126,VALID,2.26797,
2016-01-24, 08:09:04,VALID,919.336,VALID,0,VALID,85.3975,VALID,286.868,VALID,22.6096,VALID,134,VALID,1.29062,
2016-01-24, 08:10:04,VALID,919.329,VALID,0,VALID,83.9338,VALID,287.298,VALID,22.725,VALID,147,VALID,1.08867,
2016-01-24, 08:11:04,VALID,919.321,VALID,0,VALID,82.4091,VALID,292.992,VALID,22.8031,VALID,144,VALID,2.40273,
2016-01-24, 08:12:04,VALID,919.306,VALID,0,VALID,82.7827,VALID,300.62,VALID,22.9202,VALID,174,VALID,0.346094,
2016-01-24, 08:13:04,VALID,919.328,VALID,0,VALID,81.0598,VALID,294.281,VALID,23.0568,VALID,170,VALID,0,
2016-01-24, 08:14:04,VALID,919.333,VALID,0,VALID,80.8921,VALID,297.827,VALID,23.1917,VALID,159,VALID,0,
2016-01-24, 08:15:04,VALID,919.335,VALID,0,VALID,80.2822,VALID,302.447,VALID,23.3496,VALID,151,VALID,0.947266,
2016-01-24, 08:16:04,VALID,919.333,VALID,0,VALID,79.8629,VALID,310.72,VALID,23.4845,VALID,163,VALID,0,
2016-01-24, 08:17:04,VALID,919.383,VALID,0,VALID,78.6127,VALID,317.166,VALID,23.6034,VALID,165,VALID,1.56328,
2016-01-24, 08:18:04,VALID,919.415,VALID,0,VALID,78.3916,VALID,325.224,VALID,23.662,VALID,166,VALID,0.401563,
2016-01-24, 08:19:04,VALID,919.422,VALID,0,VALID,77.0499,VALID,313.621,VALID,23.6815,VALID,148,VALID,2.30391,
2016-01-24, 08:20:04,VALID,919.421,VALID,0,VALID,77.5987,VALID,258.611,VALID,23.6602,VALID,168,VALID,1.00898,
2016-01-24, 08:21:04,VALID,919.408,VALID,0,VALID,77.1185,VALID,213.163,VALID,23.7205,VALID,161,VALID,1.82578,
2016-01-24, 08:22:04,VALID,919.486,VALID,0,VALID,76.9508,VALID,217.461,VALID,23.6602,VALID,160,VALID,1.78672,
2016-01-24, 08:23:04,VALID,919.507,VALID,0,VALID,77.4158,VALID,175.022,VALID,23.5821,VALID,163,VALID,1.14766,
2016-01-24, 08:24:04,VALID,919.511,VALID,0,VALID,77.9571,VALID,168.145,VALID,23.4845,VALID,165,VALID,1.39844,
2016-01-24, 08:25:04,VALID,919.503,VALID,0,VALID,79.0929,VALID,195.113,VALID,23.4454,VALID,137,VALID,0.905469,
2016-01-24, 08:26:04,VALID,919.524,VALID,0,VALID,78.6584,VALID,246.47,VALID,23.4454,VALID,164,VALID,1.60664,
2016-01-24, 08:27:04,VALID,919.522,VALID,0,VALID,78.5288,VALID,265.272,VALID,23.465,VALID,164,VALID,1.51797,
2016-01-24, 08:28:04,VALID,919.537,VALID,0,VALID,78.6889,VALID,312.331,VALID,23.504,VALID,157,VALID,1.62852,
2016-01-24, 08:29:04,VALID,919.564,VALID,0,VALID,79.1539,VALID,272.148,VALID,23.6016,VALID,134,VALID,1.50664,
2016-01-24, 08:30:04,VALID,919.572,VALID,0,VALID,79.3903,VALID,279.454,VALID,23.7187,VALID,141,VALID,0.150781,
2016-01-24, 08:31:04,VALID,919.604,VALID,0,VALID,77.9113,VALID,316.629,VALID,23.7773,VALID,150,VALID,0.0046875,
2016-01-24, 08:32:04,VALID,919.595,VALID,0,VALID,77.3319,VALID,374.432,VALID,23.8358,VALID,165,VALID,0.00195313,
2016-01-24, 08:33:04,VALID,919.595,VALID,0,VALID,77.6292,VALID,391.408,VALID,23.9139,VALID,155,VALID,0.9,
2016-01-24, 08:34:04,VALID,919.6,VALID,0,VALID,76.9584,VALID,323.828,VALID,24.1287,VALID,133,VALID,0.0265625,
2016-01-24, 08:35:04,VALID,919.596,VALID,0,VALID,78.3001,VALID,309.753,VALID,24.1464,VALID,86,VALID,1.72539,
2016-01-24, 08:36:04,VALID,919.626,VALID,0,VALID,77.9037,VALID,381.846,VALID,24.1482,VALID,149,VALID,1.51602,
2016-01-24, 08:37:04,VALID,919.629,VALID,0,VALID,74.8772,VALID,409.781,VALID,24.1092,VALID,150,VALID,2.14141,
2016-01-24, 08:38:04,VALID,919.614,VALID,0,VALID,76.0893,VALID,430.302,VALID,24.1092,VALID,172,VALID,1.96992,
2016-01-24, 08:39:04,VALID,919.637,VALID,0,VALID,76.5238,VALID,425.037,VALID,24.1305,VALID,159,VALID,1.68398,
2016-01-24, 08:40:04,VALID,919.627,VALID,0,VALID,76.3409,VALID,397.64,VALID,24.1482,VALID,159,VALID,1.48672,
2016-01-24, 08:41:04,VALID,919.681,VALID,0,VALID,76.379,VALID,412.574,VALID,24.1482,VALID,133,VALID,1.03789,
2016-01-24, 08:42:04,VALID,919.715,VALID,0,VALID,76.905,VALID,416.764,VALID,24.2458,VALID,146,VALID,2.63516,
2016-01-24, 08:43:04,VALID,919.738,VALID,0,VALID,77.4539,VALID,416.764,VALID,24.2635,VALID,135,VALID,1.72812,
2016-01-24, 08:44:04,VALID,919.769,VALID,0,VALID,76.3485,VALID,416.334,VALID,24.3239,VALID,143,VALID,1.54141,
2016-01-24, 08:45:04,VALID,919.783,VALID,0,VALID,74.7476,VALID,415.69,VALID,24.3435,VALID,145,VALID,1.47187,
2016-01-24, 08:46:04,VALID,919.786,VALID,0,VALID,75.1059,VALID,412.359,VALID,24.3026,VALID,139,VALID,2.8625,
2016-01-24, 08:47:04,VALID,919.758,VALID,0,VALID,76.1046,VALID,415.153,VALID,24.2458,VALID,120,VALID,1.98164,
2016-01-24, 08:48:04,VALID,919.804,VALID,0,VALID,76.1198,VALID,411.392,VALID,24.2458,VALID,159,VALID,1.55781,
2016-01-24, 08:49:04,VALID,919.755,VALID,0,VALID,74.9229,VALID,415.797,VALID,24.2849,VALID,166,VALID,1.57227,
2016-01-24, 08:50:04,VALID,919.766,VALID,0,VALID,75.7234,VALID,421.277,VALID,24.3026,VALID,151,VALID,2.43672,
2016-01-24, 08:51:04,VALID,919.813,VALID,0,VALID,76.5467,VALID,424.393,VALID,24.3026,VALID,144,VALID,2.86484,
2016-01-24, 08:52:04,VALID,919.866,VALID,0,VALID,76.3866,VALID,434.385,VALID,24.2635,VALID,160,VALID,1.63984,
2016-01-24, 08:53:04,VALID,919.89,VALID,0,VALID,75.8987,VALID,447.278,VALID,24.2049,VALID,162,VALID,2.26133,
2016-01-24, 08:54:04,VALID,919.84,VALID,0,VALID,75.0754,VALID,456.303,VALID,24.2245,VALID,166,VALID,2.35898,
2016-01-24, 08:55:04,VALID,919.874,VALID,0,VALID,75.0678,VALID,454.154,VALID,24.3026,VALID,175,VALID,2.18242,
2016-01-24, 08:56:04,VALID,919.809,VALID,0,VALID,74.8086,VALID,436.211,VALID,24.4783,VALID,154,VALID,2.29883,
2016-01-24, 08:57:04,VALID,919.801,VALID,0,VALID,76.1046,VALID,440.509,VALID,24.3983,VALID,133,VALID,2.75898,
2016-01-24, 08:58:04,VALID,919.827,VALID,0,VALID,75.6319,VALID,449.211,VALID,24.4374,VALID,148,VALID,1.99688,
2016-01-24, 08:59:04,VALID,919.844,VALID,0,VALID,76.6839,VALID,456.303,VALID,24.6521,VALID,104,VALID,0.858594,
2016-01-24, 09:00:04,VALID,919.845,VALID,0,VALID,74.1987,VALID,120.442,VALID,24.8102,VALID,89,VALID,0.879687,
2016-01-24, 09:01:04,VALID,919.853,VALID,0,VALID,73.7947,VALID,474.89,VALID,24.9859,VALID,130,VALID,0.993359,
2016-01-24, 09:02:04,VALID,919.89,VALID,0,VALID,73.7108,VALID,487.031,VALID,25.1226,VALID,108,VALID,1.83711,
2016-01-24, 09:03:04,VALID,919.844,VALID,0,VALID,72.4682,VALID,478.435,VALID,25.1617,VALID,143,VALID,2.24375,
2016-01-24, 09:04:04,VALID,919.833,VALID,0,VALID,70.9435,VALID,486.386,VALID,25.1031,VALID,144,VALID,2.29688,
2016-01-24, 09:05:04,VALID,919.814,VALID,0,VALID,72.3691,VALID,379.59,VALID,25.0836,VALID,162,VALID,2.41602,
2016-01-24, 09:06:04,VALID,919.865,VALID,0,VALID,72.6207,VALID,474.782,VALID,25.105,VALID,80,VALID,2.06406,
2016-01-24, 09:07:04,VALID,919.861,VALID,0,VALID,72.3081,VALID,495.841,VALID,25.1441,VALID,69,VALID,2.45352,
2016-01-24, 09:08:04,VALID,919.907,VALID,0,VALID,73.9471,VALID,114.21,VALID,25.0445,VALID,108,VALID,2.17461,
2016-01-24, 09:09:04,VALID,919.83,VALID,0,VALID,73.1162,VALID,107.011,VALID,24.7711,VALID,91,VALID,2.96602,
2016-01-24, 09:10:04,VALID,919.893,VALID,0,VALID,73.6803,VALID,141.285,VALID,24.5582,VALID,80,VALID,2.71836,
2016-01-24, 09:11:04,VALID,919.879,VALID,0,VALID,72.0413,VALID,386.251,VALID,24.4002,VALID,114,VALID,3.33242,
2016-01-24, 09:12:04,VALID,919.944,VALID,0,VALID,71.6677,VALID,514.213,VALID,24.4002,VALID,78,VALID,3.77656,
2016-01-24, 09:13:04,VALID,919.777,VALID,0,VALID,72.1175,VALID,508.949,VALID,24.4411,VALID,52,VALID,4.51602,
2016-01-24, 09:14:04,VALID,919.917,VALID,0,VALID,71.2027,VALID,516.04,VALID,24.4783,VALID,95,VALID,3.00781,
2016-01-24, 09:15:04,VALID,919.909,VALID,0,VALID,72.5673,VALID,518.296,VALID,24.5759,VALID,83,VALID,2.7707,
2016-01-24, 09:16:04,VALID,919.855,VALID,0,VALID,70.9664,VALID,513.998,VALID,24.654,VALID,126,VALID,2.21133,
2016-01-24, 09:17:04,VALID,919.791,VALID,0,VALID,69.6399,VALID,522.701,VALID,24.7321,VALID,64,VALID,4.01953,
2016-01-24, 09:18:04,VALID,919.901,VALID,0,VALID,70.6691,VALID,536.346,VALID,24.8102,VALID,93,VALID,2.65469,
2016-01-24, 09:19:04,VALID,919.913,VALID,0,VALID,72.1633,VALID,535.487,VALID,24.9097,VALID,71,VALID,0.898828,
2016-01-24, 09:20:04,VALID,919.924,VALID,0,VALID,69.2892,VALID,540.859,VALID,24.9859,VALID,110,VALID,1.97187,
2016-01-24, 09:21:04,VALID,919.954,VALID,0,VALID,71.3399,VALID,542.148,VALID,25.0836,VALID,91,VALID,1.67266,
2016-01-24, 09:22:04,VALID,919.899,VALID,0,VALID,69.3273,VALID,543.33,VALID,25.1207,VALID,52,VALID,2.74844,
2016-01-24, 09:23:04,VALID,919.979,VALID,0,VALID,70.8749,VALID,552.355,VALID,25.1422,VALID,106,VALID,1.67188,
2016-01-24, 09:24:04,VALID,919.97,VALID,0,VALID,70.5623,VALID,553.537,VALID,25.2203,VALID,81,VALID,1.45938,
2016-01-24, 09:25:04,VALID,919.941,VALID,0,VALID,69.3426,VALID,556.653,VALID,25.2965,VALID,111,VALID,2.21875,
2016-01-24, 09:26:04,VALID,919.937,VALID,0,VALID,67.574,VALID,568.901,VALID,25.357,VALID,52,VALID,2.26875,
2016-01-24, 09:27:04,VALID,919.945,VALID,0,VALID,69.0834,VALID,564.388,VALID,25.3179,VALID,67,VALID,2.08516,
2016-01-24, 09:28:04,VALID,919.983,VALID,0,VALID,70.2193,VALID,580.29,VALID,25.3765,VALID,50,VALID,1.14883,
2016-01-24, 09:29:04,VALID,919.953,VALID,0,VALID,71.6296,VALID,575.992,VALID,25.5913,VALID,43,VALID,1.47773,
2016-01-24, 09:30:04,VALID,919.834,VALID,0,VALID,68.3592,VALID,575.24,VALID,25.7495,VALID,70,VALID,3.82695,
2016-01-24, 09:31:04,VALID,919.994,VALID,0,VALID,68.3058,VALID,587.166,VALID,25.4741,VALID,130,VALID,1.85078,
2016-01-24, 09:32:04,VALID,919.979,VALID,0,VALID,68.1305,VALID,362.077,VALID,25.396,VALID,82,VALID,3.92461,
2016-01-24, 09:33:04,VALID,920.04,VALID,0,VALID,69.922,VALID,590.497,VALID,25.2788,VALID,90,VALID,3.00977,
2016-01-24, 09:34:04,VALID,920.031,VALID,0,VALID,68.6717,VALID,586.629,VALID,25.2398,VALID,117,VALID,2.17109,
2016-01-24, 09:35:04,VALID,920.071,VALID,0,VALID,70.6691,VALID,587.811,VALID,25.2398,VALID,88,VALID,0.589453,
2016-01-24, 09:36:04,VALID,919.992,VALID,0,VALID,68.4354,VALID,570.62,VALID,25.2379,VALID,73,VALID,3.13984,
2016-01-24, 09:37:04,VALID,920.049,VALID,0,VALID,67.8027,VALID,579.323,VALID,25.1812,VALID,126,VALID,2.49883,
2016-01-24, 09:38:04,VALID,920.028,VALID,0,VALID,70.7453,VALID,584.265,VALID,25.2203,VALID,111,VALID,1.28047,
2016-01-24, 09:39:04,VALID,920.016,VALID,0,VALID,72.2929,VALID,587.273,VALID,25.4527,VALID,103,VALID,1.78984,
2016-01-24, 09:40:04,VALID,920.032,VALID,0,VALID,65.2031,VALID,579.967,VALID,25.5894,VALID,47,VALID,2.69609,
2016-01-24, 09:41:04,VALID,920.039,VALID,0,VALID,65.752,VALID,577.174,VALID,25.5894,VALID,81,VALID,0.626953,
2016-01-24, 09:42:04,VALID,920.03,VALID,0,VALID,66.9641,VALID,574.918,VALID,25.687,VALID,134,VALID,0.267188,
2016-01-24, 09:43:04,VALID,919.976,VALID,0,VALID,66.4914,VALID,583.835,VALID,25.9038,VALID,167,VALID,1.69023,
2016-01-24, 09:44:04,VALID,920.028,VALID,0,VALID,67.7798,VALID,589.745,VALID,25.7651,VALID,101,VALID,2.26484,
2016-01-24, 09:45:04,VALID,920.021,VALID,0,VALID,67.9704,VALID,588.133,VALID,25.7456,VALID,100,VALID,1.76328,
2016-01-24, 09:46:04,VALID,920.036,VALID,0,VALID,67.978,VALID,593.612,VALID,25.7261,VALID,139,VALID,1.3,
2016-01-24, 09:47:04,VALID,920.032,VALID,0,VALID,67.0632,VALID,601.241,VALID,25.7651,VALID,66,VALID,1.62695,
2016-01-24, 09:48:04,VALID,919.983,VALID,0,VALID,68.3363,VALID,604.786,VALID,25.7847,VALID,71,VALID,0.574609,
2016-01-24, 09:49:04,VALID,920.014,VALID,0,VALID,66.8497,VALID,617.249,VALID,25.8042,VALID,135,VALID,2.68281,
2016-01-24, 09:50:04,VALID,920.053,VALID,0,VALID,67.2309,VALID,544.619,VALID,25.7866,VALID,139,VALID,1.56445,
2016-01-24, 09:51:04,VALID,920.049,VALID,0,VALID,66.7201,VALID,610.158,VALID,25.8257,VALID,78,VALID,2.44141,
2016-01-24, 09:52:04,VALID,920.046,VALID,0,VALID,70.5547,VALID,605.109,VALID,25.8452,VALID,70,VALID,1.95078,
2016-01-24, 09:53:04,VALID,920.06,VALID,0,VALID,65.9273,VALID,607.902,VALID,25.8062,VALID,344,VALID,0.0632813,
2016-01-24, 09:54:04,VALID,920.055,VALID,0,VALID,66.8116,VALID,599.307,VALID,25.9038,VALID,101,VALID,1.35391,
2016-01-24, 09:55:04,VALID,920.064,VALID,0,VALID,66.3008,VALID,587.811,VALID,25.982,VALID,60,VALID,1.18203,
2016-01-24, 09:56:04,VALID,920.025,VALID,0,VALID,67.6426,VALID,555.148,VALID,26.0581,VALID,35,VALID,1.84609,
2016-01-24, 09:57:04,VALID,920.002,VALID,0,VALID,66.1408,VALID,504.544,VALID,26.0015,VALID,42,VALID,3.47187,
2016-01-24, 09:58:04,VALID,920.034,VALID,0,VALID,64.7914,VALID,439.757,VALID,25.9194,VALID,63,VALID,0.241406,
2016-01-24, 09:59:04,VALID,920.012,VALID,0,VALID,66.6439,VALID,213.808,VALID,25.9019,VALID,74,VALID,3.12461,
2016-01-24, 10:00:04,VALID,920.001,VALID,0,VALID,68.2982,VALID,256.892,VALID,25.7261,VALID,64,VALID,2.5043,
2016-01-24, 10:01:04,VALID,920.01,VALID,0,VALID,68.0924,VALID,171.369,VALID,25.7241,VALID,102,VALID,0,
2016-01-24, 10:02:04,VALID,920.006,VALID,0,VALID,68.748,VALID,123.128,VALID,25.8804,VALID,93,VALID,0,
2016-01-24, 10:03:04,VALID,919.97,VALID,0,VALID,65.9578,VALID,101.21,VALID,26.0366,VALID,73,VALID,0.501172,
2016-01-24, 10:04:04,VALID,919.981,VALID,0,VALID,64.6847,VALID,95.6226,VALID,26.0561,VALID,57,VALID,0.00585938,
2016-01-24, 10:05:04,VALID,920.003,VALID,0,VALID,64.6008,VALID,96.2673,VALID,26.1538,VALID,103,VALID,1.13672,
2016-01-24, 10:06:04,VALID,919.967,VALID,0,VALID,64.9363,VALID,103.788,VALID,26.1147,VALID,128,VALID,0.798828,
2016-01-24, 10:07:04,VALID,919.939,VALID,0,VALID,66.1636,VALID,114.962,VALID,26.0757,VALID,67,VALID,3.12383,
2016-01-24, 10:08:04,VALID,920.029,VALID,0,VALID,66.8116,VALID,118.185,VALID,26.1538,VALID,77,VALID,3.47695,
2016-01-24, 10:09:04,VALID,919.993,VALID,0,VALID,65.9349,VALID,115.177,VALID,26.1948,VALID,99,VALID,2.91641,
2016-01-24, 10:10:04,VALID,919.974,VALID,0,VALID,66.156,VALID,114.64,VALID,26.0776,VALID,85,VALID,2.7543,
2016-01-24, 10:11:04,VALID,920.004,VALID,0,VALID,66.1712,VALID,108.086,VALID,26.0972,VALID,101,VALID,2.25898,
2016-01-24, 10:12:04,VALID,920.029,VALID,0,VALID,65.4699,VALID,109.59,VALID,26.1167,VALID,114,VALID,2.52109,
2016-01-24, 10:13:04,VALID,920.012,VALID,0,VALID,66.4533,VALID,140.103,VALID,26.1753,VALID,78,VALID,0.423047,
2016-01-24, 10:14:04,VALID,920.039,VALID,0,VALID,64.5551,VALID,177.278,VALID,26.1167,VALID,66,VALID,2.72266,
2016-01-24, 10:15:04,VALID,920.088,VALID,0,VALID,68.6412,VALID,190.171,VALID,26.0581,VALID,82,VALID,0.903125,
2016-01-24, 10:16:04,VALID,920.081,VALID,0,VALID,68.4507,VALID,189.096,VALID,25.9604,VALID,64,VALID,0.616406,
2016-01-24, 10:17:04,VALID,920.077,VALID,0,VALID,67.7645,VALID,181.253,VALID,25.9019,VALID,112,VALID,0.380469,
2016-01-24, 10:18:04,VALID,920.066,VALID,0,VALID,65.0201,VALID,252.702,VALID,25.8823,VALID,70,VALID,0.580469,
2016-01-24, 10:19:04,VALID,920.06,VALID,0,VALID,65.8053,VALID,379.16,VALID,25.9995,VALID,104,VALID,1.41016,
2016-01-24, 10:20:04,VALID,920.035,VALID,0,VALID,67.0327,VALID,169.864,VALID,26.1362,VALID,84,VALID,0.577734,
2016-01-24, 10:21:04,VALID,920.038,VALID,0,VALID,68.0009,VALID,165.889,VALID,26.2144,VALID,111,VALID,2.71602,
2016-01-24, 10:22:04,VALID,920.056,VALID,0,VALID,66.217,VALID,707.822,VALID,26.0757,VALID,107,VALID,1.26094,
2016-01-24, 10:23:04,VALID,920.081,VALID,0,VALID,67.574,VALID,738.228,VALID,26.0776,VALID,92,VALID,3.08242,
2016-01-24, 10:24:04,VALID,920.065,VALID,0,VALID,68.2829,VALID,160.732,VALID,26.0386,VALID,75,VALID,1.62305,
2016-01-24, 10:25:04,VALID,920.078,VALID,0,VALID,68.5345,VALID,174.699,VALID,26.0952,VALID,87,VALID,0.885547,
2016-01-24, 10:26:04,VALID,920.09,VALID,0,VALID,64.9591,VALID,790.015,VALID,25.9604,VALID,118,VALID,1.20781,
2016-01-24, 10:27:04,VALID,920.029,VALID,0,VALID,65.7215,VALID,808.924,VALID,25.9409,VALID,93,VALID,1.8875,
2016-01-24, 10:28:04,VALID,920.028,VALID,0,VALID,68.0695,VALID,761.973,VALID,25.9389,VALID,89,VALID,1.44297,
2016-01-24, 10:29:04,VALID,920.013,VALID,0,VALID,64.8524,VALID,219.717,VALID,26.1558,VALID,130,VALID,2.23633,
2016-01-24, 10:30:04,VALID,920.027,VALID,0,VALID,66.7049,VALID,236.585,VALID,26.1558,VALID,81,VALID,1.86797,
2016-01-24, 10:31:04,VALID,920.025,VALID,0,VALID,65.5156,VALID,883.381,VALID,26.1167,VALID,65,VALID,2.64687,
2016-01-24, 10:32:04,VALID,920.072,VALID,0,VALID,64.0977,VALID,899.712,VALID,26.1558,VALID,68,VALID,3.29453,
2016-01-24, 10:33:04,VALID,920.021,VALID,0,VALID,67.3605,VALID,912.605,VALID,26.1733,VALID,74,VALID,1.57148,
2016-01-24, 10:34:04,VALID,920.051,VALID,0,VALID,67.0708,VALID,747.146,VALID,26.4292,VALID,38,VALID,0.957031,
2016-01-24, 10:35:04,VALID,920.044,VALID,0,VALID,63.8004,VALID,905.621,VALID,26.7223,VALID,164,VALID,0,
2016-01-24, 10:36:04,VALID,920.036,VALID,0,VALID,63.7927,VALID,289.554,VALID,26.6246,VALID,105,VALID,2.4582,
2016-01-24, 10:37:04,VALID,919.972,VALID,0,VALID,62.8627,VALID,276.876,VALID,26.566,VALID,29,VALID,1.20469,
2016-01-24, 10:38:04,VALID,919.917,VALID,0,VALID,64.5246,VALID,397.64,VALID,26.6636,VALID,45,VALID,2.76445,
2016-01-24, 10:39:04,VALID,920.017,VALID,0,VALID,63.8766,VALID,290.951,VALID,26.4683,VALID,101,VALID,2.65391,
2016-01-24, 10:40:04,VALID,919.993,VALID,0,VALID,64.0748,VALID,308.893,VALID,26.3316,VALID,43,VALID,2.83242,
2016-01-24, 10:41:04,VALID,920.02,VALID,0,VALID,66.8955,VALID,249.586,VALID,26.312,VALID,46,VALID,1.43242,
2016-01-24, 10:42:04,VALID,920.002,VALID,0,VALID,64.9972,VALID,221.651,VALID,26.312,VALID,47,VALID,1.83594,
2016-01-24, 10:43:04,VALID,919.99,VALID,0,VALID,64.0748,VALID,230.139,VALID,26.312,VALID,78,VALID,1.27773,
2016-01-24, 10:44:04,VALID,919.973,VALID,0,VALID,65.3937,VALID,196.51,VALID,26.2534,VALID,68,VALID,2.43086,
2016-01-24, 10:45:04,VALID,919.919,VALID,0,VALID,62.9465,VALID,829.768,VALID,26.1362,VALID,75,VALID,3.08242,
2016-01-24, 10:46:04,VALID,919.954,VALID,0,VALID,63.4344,VALID,798.18,VALID,26.1362,VALID,114,VALID,0.0195313,
2016-01-24, 10:47:04,VALID,919.929,VALID,0,VALID,62.9389,VALID,804.734,VALID,26.312,VALID,86,VALID,2.32656,
2016-01-24, 10:48:04,VALID,919.912,VALID,0,VALID,67.1089,VALID,812.363,VALID,26.5464,VALID,123,VALID,0.385547,
2016-01-24, 10:49:04,VALID,919.925,VALID,0,VALID,63.5259,VALID,791.519,VALID,26.8199,VALID,90,VALID,2.10195,
2016-01-24, 10:50:04,VALID,919.904,VALID,0,VALID,63.5564,VALID,793.023,VALID,26.7418,VALID,95,VALID,2.16641,
2016-01-24, 10:51:04,VALID,919.879,VALID,0,VALID,64.4026,VALID,542.47,VALID,26.6636,VALID,68,VALID,1.59727,
2016-01-24, 10:52:04,VALID,919.866,VALID,0,VALID,65.4165,VALID,823.644,VALID,26.7613,VALID,86,VALID,1.96484,
2016-01-24, 10:53:04,VALID,919.851,VALID,0,VALID,65.9044,VALID,832.561,VALID,26.8415,VALID,111,VALID,1.81133,
2016-01-24, 10:54:04,VALID,919.898,VALID,0,VALID,64.8905,VALID,844.917,VALID,26.9567,VALID,108,VALID,1.77227,
2016-01-24, 10:55:04,VALID,919.882,VALID,0,VALID,63.7623,VALID,829.661,VALID,27.0739,VALID,138,VALID,0.135156,
2016-01-24, 10:56:04,VALID,919.827,VALID,0,VALID,62.0622,VALID,826.222,VALID,27.0328,VALID,75,VALID,2.62344,
2016-01-24, 10:57:04,VALID,919.83,VALID,0,VALID,60.9035,VALID,840.942,VALID,26.8395,VALID,132,VALID,3.64883,
2016-01-24, 10:58:04,VALID,919.783,VALID,0,VALID,64.1358,VALID,842.554,VALID,26.8199,VALID,39,VALID,3.52734,
2016-01-24, 10:59:04,VALID,919.789,VALID,0,VALID,65.3479,VALID,570.62,VALID,26.9351,VALID,77,VALID,1.95625,
2016-01-24, 11:00:04,VALID,919.796,VALID,0,VALID,61.8259,VALID,848.893,VALID,26.9937,VALID,64,VALID,1.76719,
2016-01-24, 11:01:04,VALID,919.663,VALID,0,VALID,63.9986,VALID,816.66,VALID,27.0153,VALID,61,VALID,3.71797,
2016-01-24, 11:02:04,VALID,919.7,VALID,0,VALID,62.7712,VALID,813.115,VALID,26.9351,VALID,60,VALID,2.32109,
2016-01-24, 11:03:04,VALID,919.741,VALID,0,VALID,66.3466,VALID,806.668,VALID,27.1325,VALID,82,VALID,0.0195313,
2016-01-24, 11:04:04,VALID,919.692,VALID,0,VALID,61.2237,VALID,806.131,VALID,27.4235,VALID,78,VALID,1.42266,
2016-01-24, 11:05:04,VALID,919.655,VALID,0,VALID,63.8309,VALID,176.418,VALID,27.3063,VALID,52,VALID,1.93984,
2016-01-24, 11:06:04,VALID,919.722,VALID,0,VALID,62.8093,VALID,809.891,VALID,27.0719,VALID,113,VALID,2.9,
2016-01-24, 11:07:04,VALID,919.724,VALID,0,VALID,63.1981,VALID,835.14,VALID,26.8765,VALID,126,VALID,2.50117,
2016-01-24, 11:08:04,VALID,919.672,VALID,0,VALID,63.8766,VALID,826.76,VALID,26.8785,VALID,73,VALID,2.79141,
2016-01-24, 11:09:04,VALID,919.727,VALID,0,VALID,63.7851,VALID,827.082,VALID,26.8374,VALID,100,VALID,3.49805,
2016-01-24, 11:10:04,VALID,919.652,VALID,0,VALID,62.8322,VALID,832.884,VALID,26.896,VALID,86,VALID,1.33555,